Stations météo

réclame
Mon MeteoGroup
Altnaharra, Grande-Bretagne (3044): Température de l'air & dewpoint: 11.01.2019 23:00:00 - 17.01.2019 23:00:00 (GMT)Altnaharra, Grande-Bretagne (3044): Température de l'air -20cm & Température de l'air -100cm: 11.01.2019 23:00:00 - 17.01.2019 23:00:00 (GMT)Altnaharra, Grande-Bretagne (3044): Vitesse du vent & gusts: 11.01.2019 23:00:00 - 17.01.2019 23:00:00 (GMT)Altnaharra, Grande-Bretagne (3044): Direction du vent: 11.01.2019 23:00:00 - 17.01.2019 23:00:00 (GMT)Altnaharra, Grande-Bretagne (3044): reduced air pressure: 11.01.2019 23:00:00 - 17.01.2019 23:00:00 (GMT)Altnaharra, Grande-Bretagne (3044): visibility: 11.01.2019 23:00:00 - 17.01.2019 23:00:00 (GMT)Altnaharra, Grande-Bretagne (3044): Ensoleillement: 11.01.2019 23:00:00 - 17.01.2019 23:00:00 (GMT)Altnaharra, Grande-Bretagne (3044): Quantités de précipitations: 11.01.2019 23:00:00 - 17.01.2019 23:00:00 (GMT)
Date & Time tt [°C] td [°C] tt -20cm [°C] tt -100cm [°C] ff [km/h] ff [knt] fx [km/h] fx [knt] dd ppp [hPa] vv [km] sd [min] rr [mm]
17.01.2019 23:00:00 -5,4 -6,1 - - 2 1 - - WNW 1015,6 35 0 0,0
17.01.2019 22:00:00 -4,2 -4,8 - - 0 0 - - N 1015,9 30 0 0,0
17.01.2019 21:00:00 -3,2 -3,9 - - 5 3 - - NW 1016,2 35 0 0,0
17.01.2019 20:00:00 -2,3 -3,0 - - 4 2 - - WNW 1016,1 40 0 0,0
17.01.2019 19:00:00 -1,4 -2,1 - - 8 4 - - NNW 1016,2 50 0 0,0
17.01.2019 18:00:00 -1,9 -2,6 - - 2 1 - - NNW 1015,9 50 0 0,0
17.01.2019 17:00:00 -0,7 -1,1 - - 8 4 - - S 1015,9 40 0 0,0
17.01.2019 16:00:00 0,1 -0,4 - - 8 4 - - S 1015,7 28 0 0,2
17.01.2019 15:00:00 0,6 -0,2 - - 8 4 - - NW 1015,9 50 0 0,4
17.01.2019 14:00:00 0,4 -0,3 - - 13 7 - - W 1015,6 1,4 18 0,6
17.01.2019 13:00:00 2,9 -1,0 - - 5 3 - - S 1014,7 35 36 0,0
17.01.2019 12:00:00 0,7 -1,6 - - 5 3 - - NE 1014,7 25 12 0,0
17.01.2019 11:00:00 0,1 -2,1 - - 4 2 - - SE 1014,3 29 18 0,0
17.01.2019 10:00:00 1,4 -0,1 - - 15 8 - - NW 1013,5 30 0 0,0
17.01.2019 09:00:00 -0,3 -2,7 5,5 6,4 11 6 - - W 1012,7 35 0 0,0
17.01.2019 08:00:00 0,2 -2,0 - - 8 4 - - WNW 1012,1 22 0 0,0
17.01.2019 07:00:00 1,9 -2,3 - - 26 14 50 27 NW 1010,9 28 0 0,0
17.01.2019 06:00:00 1,3 -1,1 - - 24 13 - - WNW 1010,0 18 0 0,0
17.01.2019 05:00:00 0,8 -2,1 - - 37 20 61 33 NW 1009,1 40 0 0,0
17.01.2019 04:00:00 0,5 -0,6 - - 16 9 52 28 W 1007,7 25 0 0,0
17.01.2019 03:00:00 0,8 -0,3 - - 24 13 46 25 NW 1006,8 2,2 0 0,0
17.01.2019 02:00:00 1,1 -0,5 - - 37 20 68 37 WNW 1005,4 35 0 0,0
17.01.2019 01:00:00 0,9 -3,0 - - 22 12 - - WNW 1004,4 30 0 0,0
17.01.2019 00:00:00 0,0 -3,2 - - 18 10 - - WNW 1004,3 35 - 0,0
16.01.2019 23:00:00 0,0 -1,4 - - 29 16 - - W 1003,9 3,0 0 0,0
16.01.2019 22:00:00 -0,6 -2,2 - - 18 10 54 29 W 1002,7 45 0 0,0
16.01.2019 21:00:00 0,3 -3,0 - - 24 13 - - WNW 1001,7 45 0 0,0
16.01.2019 20:00:00 0,8 -2,2 - - 29 16 50 27 WNW 1000,9 50 0 0,2
16.01.2019 19:00:00 0,4 -0,3 - - 31 17 46 25 NW 999,6 1,5 0 0,8
16.01.2019 18:00:00 1,3 0,3 - - 24 13 - - NW 997,9 8 0 2,2
16.01.2019 17:00:00 0,6 0,2 - - 13 7 - - NW 996,4 3,5 0 1,6
16.01.2019 16:00:00 1,7 0,8 - - 26 14 - - W 995,0 5 0 0,6
16.01.2019 15:00:00 3,4 1,9 - - 16 9 - - W 993,8 30 0 0,0
16.01.2019 14:00:00 3,3 1,8 - - 21 11 - - W 993,3 40 0 0,0
16.01.2019 13:00:00 3,4 2,2 - - 9 5 - - SW 992,8 50 0 0,0
16.01.2019 12:00:00 3,2 2,2 - - 4 2 - - S 992,5 50 0 0,0
16.01.2019 11:00:00 2,4 1,4 - - 8 4 - - SW 992,1 35 0 0,2
16.01.2019 10:00:00 2,1 1,2 - - 4 2 - - NE 992,1 50 0 0,0
16.01.2019 09:00:00 1,8 0,9 6,0 6,4 16 9 - - S 992,1 8 0 1,4
16.01.2019 08:00:00 3,4 2,2 - - 13 7 - - S 991,5 45 0 0,0
16.01.2019 07:00:00 3,6 2,8 - - 2 1 - - NNW 991,4 35 0 0,0
16.01.2019 06:00:00 4,0 2,7 - - 5 3 - - SSE 991,6 50 0 0,0
16.01.2019 05:00:00 4,7 3,4 - - 18 10 - - W 991,9 12 0 0,0
16.01.2019 04:00:00 5,2 3,5 - - 15 8 - - W 992,4 45 0 0,2
16.01.2019 03:00:00 5,5 3,9 - - 26 14 48 26 W 992,6 50 0 0,0
16.01.2019 02:00:00 6,2 4,0 - - 26 14 48 26 WSW 992,2 27 0 0,0
16.01.2019 01:00:00 6,7 3,7 - - 34 18 67 36 WSW 992,2 45 0 0,0
16.01.2019 00:00:00 6,9 3,6 - - 37 20 59 32 WSW 992,2 45 - 0,0
15.01.2019 23:00:00 8,2 5,3 - - 31 17 55 30 SW 991,6 20 0 0,0
15.01.2019 22:00:00 9,5 6,4 - - 29 16 57 31 SSW 991,8 10 0 0,2
15.01.2019 21:00:00 9,5 7,4 - - 24 13 - - SSW 992,5 9 0 0,0
15.01.2019 20:00:00 8,7 7,3 - - 21 11 - - S 993,6 7 0 0,2
15.01.2019 19:00:00 8,2 5,9 - - 16 9 - - S 995,1 8 0 0,0
15.01.2019 18:00:00 8,5 5,6 - - 16 9 48 26 SSW 996,9 29 0 0,0
15.01.2019 17:00:00 8,5 6,0 - - 15 8 - - SSW 997,8 12 0 0,2
15.01.2019 16:00:00 9,1 5,9 - - 24 13 50 27 SW 999,2 15 0 0,0
15.01.2019 15:00:00 9,4 7,8 - - 28 15 52 28 SW 999,6 7 0 1,0
15.01.2019 14:00:00 6,2 5,6 - - 4 2 - - ESE 1000,7 8 0 0,2
15.01.2019 13:00:00 6,2 5,5 - - 4 2 - - W 1002,2 4,9 0 0,8
15.01.2019 12:00:00 5,9 4,8 - - 5 3 - - SW 1003,1 10 0 0,6
15.01.2019 11:00:00 6,3 4,4 - - 21 11 - - WSW 1004,0 14 0 0,4
15.01.2019 10:00:00 6,3 4,8 - - 16 9 - - WSW 1004,5 10 0 1,2
15.01.2019 09:00:00 7,3 4,5 5,7 6,4 13 7 - - SW 1004,9 11 0 0,0
15.01.2019 08:00:00 7,1 4,1 - - 9 5 - - SW 1004,8 15 0 0,0
15.01.2019 07:00:00 7,5 4,0 - - 11 6 - - SSW 1005,0 14 0 0,0
15.01.2019 06:00:00 7,2 2,8 - - 11 6 - - SSW 1005,4 15 0 0,0
15.01.2019 05:00:00 7,5 4,0 - - 11 6 - - SW 1005,7 13 0 0,0
15.01.2019 04:00:00 7,7 5,0 - - 22 12 67 36 W 1005,6 16 0 0,0
15.01.2019 03:00:00 8,7 6,9 - - 39 21 59 32 WSW 1004,8 5 0 0,2
15.01.2019 02:00:00 10,2 8,3 - - 26 14 59 32 WSW 1004,7 10 0 0,0
15.01.2019 01:00:00 9,7 8,1 - - 16 9 - - SW 1005,0 11 0 0,6
15.01.2019 00:00:00 9,1 7,7 - - 15 8 - - SSW 1005,7 29 - 0,6
14.01.2019 23:00:00 8,4 7,0 - - 16 9 - - SSW 1006,8 11 0 0,6
14.01.2019 22:00:00 8,1 6,5 - - 18 10 46 25 SW 1007,5 30 0 0,2
14.01.2019 21:00:00 8,0 6,2 - - 24 13 48 26 SW 1007,9 22 0 0,0
14.01.2019 20:00:00 6,9 5,8 - - 11 6 - - S 1009,4 10 0 0,0
14.01.2019 19:00:00 6,6 5,2 - - 15 8 - - S 1010,5 21 0 0,0
14.01.2019 18:00:00 5,9 4,6 - - 9 5 - - S 1011,5 14 0 0,0
14.01.2019 17:00:00 5,7 3,3 - - 11 6 - - S 1012,1 30 0 0,0
14.01.2019 16:00:00 5,1 2,0 - - 9 5 - - SSW 1013,0 40 0 0,0
14.01.2019 15:00:00 5,3 2,1 - - 16 9 - - WSW 1013,4 22 6 0,0
14.01.2019 14:00:00 5,2 3,8 - - 15 8 - - W 1013,6 45 0 0,4
14.01.2019 13:00:00 5,1 2,9 - - 15 8 - - SW 1014,3 50 18 0,0
14.01.2019 12:00:00 3,3 0,6 - - 15 8 - - SSW 1014,9 40 0 0,2
14.01.2019 11:00:00 2,0 -1,0 - - 9 5 - - SW 1015,3 50 12 0,0
14.01.2019 10:00:00 1,2 -0,7 - - 16 9 - - S 1015,7 40 0 0,0
14.01.2019 09:00:00 0,5 -1,0 6,0 6,4 13 7 - - S 1016,5 40 0 0,0
14.01.2019 08:00:00 -3,0 -4,1 - - 2 1 - - NNW 1016,8 50 0 0,0
14.01.2019 07:00:00 -1,4 -2,8 - - 4 2 - - W 1016,7 40 0 0,0
14.01.2019 06:00:00 -1,4 -2,3 - - 4 2 - - SSE 1016,9 45 0 0,0
14.01.2019 05:00:00 -0,2 -0,6 - - 13 7 - - WSW 1016,5 35 0 0,0
14.01.2019 04:00:00 -0,3 -0,7 - - 11 6 - - WSW 1016,7 40 0 0,0
14.01.2019 03:00:00 0,6 0,2 - - 4 2 - - S 1016,5 40 0 0,0
14.01.2019 02:00:00 0,6 0,2 - - 2 1 - - NNE 1015,7 40 0 0,2
14.01.2019 01:00:00 1,1 0,7 - - 5 3 - - SW 1015,3 24 0 0,2
14.01.2019 00:00:00 1,0 0,6 - - 5 3 - - W 1014,4 4,0 - 0,8
13.01.2019 23:00:00 1,5 0,8 - - 4 2 - - NW 1013,6 2,8 0 0,0
13.01.2019 22:00:00 2,1 1,3 - - 9 5 - - N 1012,2 8 0 0,2
13.01.2019 21:00:00 2,5 1,8 - - 11 6 - - NNE 1010,6 11 0 0,2
13.01.2019 20:00:00 3,0 2,1 - - 22 12 - - NNE 1008,8 11 0 0,8
13.01.2019 19:00:00 5,0 3,9 - - 21 11 - - W 1005,9 7 0 0,2
13.01.2019 18:00:00 5,5 4,1 - - 18 10 50 27 W 1004,5 30 0 0,6
13.01.2019 17:00:00 5,5 4,1 - - 35 19 59 32 W 1003,2 5 0 1,4
13.01.2019 16:00:00 5,7 4,1 - - 31 17 50 27 W 1002,3 21 0 0,0
13.01.2019 15:00:00 5,0 3,4 - - 41 22 65 35 W 1002,1 40 0 0,4
13.01.2019 14:00:00 5,6 3,9 - - 35 19 57 31 W 1001,7 30 0 0,6
13.01.2019 13:00:00 5,8 4,4 - - 44 24 68 37 W 1001,5 21 0 1,0
13.01.2019 12:00:00 6,0 4,6 - - 42 23 61 33 W 1001,4 7 0 1,0
13.01.2019 11:00:00 6,9 4,4 - - 37 20 65 35 W 1001,1 18 0 0,2
13.01.2019 10:00:00 6,7 4,6 - - 37 20 74 40 W 1000,8 22 0 0,6
13.01.2019 09:00:00 6,3 4,1 6,2 6,2 48 26 70 38 W 1000,5 6 0 0,6
13.01.2019 08:00:00 7,1 5,1 - - 46 25 83 45 WSW 1000,0 24 0 0,2
13.01.2019 07:00:00 7,9 4,9 - - 54 29 83 45 W 1000,1 17 0 0,2
13.01.2019 06:00:00 7,7 5,6 - - 54 29 81 44 W 1000,3 15 0 0,4
13.01.2019 05:00:00 8,4 6,7 - - 63 34 81 44 W 1000,6 21 0 1,0
13.01.2019 04:00:00 8,9 7,2 - - 50 27 70 38 W 1001,0 4,8 0 0,2
13.01.2019 03:00:00 9,5 8,1 - - 42 23 57 31 WSW 1001,8 11 0 0,0
13.01.2019 02:00:00 9,6 8,3 - - 44 24 70 38 WSW 1002,3 11 0 0,4
13.01.2019 01:00:00 9,4 8,4 - - 41 22 61 33 WSW 1003,1 3,3 0 0,6
13.01.2019 00:00:00 1,0 0,6 - - 5 3 52 28 W 1014,4 4,0 - -
12.01.2019 23:00:00 9,4 8,4 - - 35 19 59 32 WSW 1004,0 4,2 0 1,6
12.01.2019 22:00:00 9,4 8,3 - - 37 20 55 30 WSW 1004,6 5 0 1,8
12.01.2019 21:00:00 9,6 8,2 - - 41 22 57 31 WSW 1005,4 4,6 0 0,8
12.01.2019 20:00:00 9,3 8,2 - - 37 20 52 28 WSW 1006,0 7 0 0,6
12.01.2019 19:00:00 9,3 8,0 - - 28 15 54 29 WSW 1006,7 21 0 0,4
12.01.2019 18:00:00 9,4 8,2 - - 28 15 - - WSW 1006,9 6 0 0,6
12.01.2019 17:00:00 8,6 7,7 - - 24 13 50 27 W 1007,8 10 0 1,0
12.01.2019 16:00:00 8,7 7,3 - - 28 15 - - WSW 1007,9 18 0 0,2
12.01.2019 15:00:00 8,2 7,2 - - 18 10 46 25 W 1008,6 12 0 0,0
12.01.2019 14:00:00 8,1 6,9 - - 15 8 50 27 WSW 1009,0 40 0 0,0
12.01.2019 13:00:00 7,9 6,6 - - 37 20 57 31 WSW 1009,6 10 0 0,2
12.01.2019 12:00:00 7,5 6,2 - - 41 22 68 37 WSW 1009,9 5 0 0,2
12.01.2019 11:00:00 7,7 6,1 - - 39 21 61 33 WSW 1009,9 18 0 0,0
12.01.2019 10:00:00 7,3 5,6 - - 44 24 61 33 W 1010,3 5 0 0,4
12.01.2019 09:00:00 7,2 4,9 5,7 6,2 44 24 74 40 W 1010,7 12 0 0,4
12.01.2019 08:00:00 6,9 4,8 - - 44 24 65 35 W 1010,6 14 0 1,4
12.01.2019 07:00:00 6,9 4,8 - - 44 24 63 34 W 1010,6 30 0 0,6
12.01.2019 06:00:00 7,1 4,9 - - 48 26 74 40 W 1010,8 5 0 1,2
12.01.2019 05:00:00 7,2 6,0 - - 39 21 68 37 W 1011,4 8 0 0,4
12.01.2019 04:00:00 6,9 5,5 - - 39 21 68 37 W 1011,6 3,8 0 1,0
12.01.2019 03:00:00 7,0 5,2 - - 42 23 67 36 W 1011,8 30 0 0,8
12.01.2019 02:00:00 6,9 5,3 - - 35 19 63 34 WSW 1012,1 7 0 1,4
12.01.2019 01:00:00 7,1 5,2 - - 39 21 67 36 WSW 1012,3 12 0 0,2
12.01.2019 00:00:00 7,2 4,9 - - 48 26 70 38 WSW 1012,8 18 - 0,6
11.01.2019 23:00:00 7,6 5,0 - - 28 15 65 35 SW 1013,5 9 0 2,0

tt = Température de l'air
td = dewpoint
tt -20cm = Température de l'air -20cm
tt -100cm = Température de l'air -100cm
ff = Vitesse du vent
fx = gusts
dd = Direction du vent
ppp = reduced air pressure
vv = visibility
sd = Ensoleillement
rr = Quantités de précipitations

stations d'obs. à proximité